TimeMST,TemperatureF,Dew PointF,Humidity,Sea Level PressureIn,VisibilityMPH,Wind Direction,Wind SpeedMPH,Gust SpeedMPH,PrecipitationIn,Events,Conditions,WindDirDegrees,DateUTC
12:53 AM,37.0,19.9,50,30.35,7.0,Calm,Calm,-,N/A,,Clear,0,2013-01-24 07:53:00
1:53 AM,36.0,21.0,55,30.34,10.0,Calm,Calm,-,N/A,,Clear,0,2013-01-24 08:53:00
2:53 AM,37.0,19.9,50,30.33,10.0,Calm,Calm,-,N/A,,Clear,0,2013-01-24 09:53:00
3:53 AM,37.0,19.9,50,30.33,10.0,Calm,Calm,-,N/A,,Clear,0,2013-01-24 10:53:00
4:53 AM,36.0,21.0,55,30.31,10.0,Calm,Calm,-,N/A,,Clear,0,2013-01-24 11:53:00
5:53 AM,37.0,21.0,52,30.32,10.0,Calm,Calm,-,N/A,,Overcast,0,2013-01-24 12:53:00
6:53 AM,37.0,19.9,50,30.33,10.0,Calm,Calm,-,N/A,,Overcast,0,2013-01-24 13:53:00
7:53 AM,36.0,21.0,55,30.33,10.0,Calm,Calm,-,N/A,,Overcast,0,2013-01-24 14:53:00
8:53 AM,37.0,21.0,52,30.32,10.0,Calm,Calm,-,N/A,,Overcast,0,2013-01-24 15:53:00
9:53 AM,39.9,21.9,49,30.33,10.0,Calm,Calm,-,N/A,,Overcast,0,2013-01-24 16:53:00
10:53 AM,39.9,23.0,51,30.34,10.0,Calm,Calm,-,N/A,,Overcast,0,2013-01-24 17:53:00
11:53 AM,41.0,21.9,47,30.33,10.0,Calm,Calm,-,N/A,,Mostly Cloudy,0,2013-01-24 18:53:00
12:53 PM,42.1,21.0,43,30.30,10.0,Calm,Calm,-,N/A,,Overcast,0,2013-01-24 19:53:00
1:53 PM,42.1,21.9,45,30.29,10.0,East,3.5,-,0.00,Rain,Light Rain,80,2013-01-24 20:53:00
2:53 PM,43.0,21.0,42,30.28,10.0,Calm,Calm,-,0.00,,Overcast,0,2013-01-24 21:53:00
3:53 PM,43.0,21.9,43,30.28,10.0,NNE,3.5,-,N/A,,Overcast,30,2013-01-24 22:53:00
4:53 PM,43.0,21.9,43,30.30,10.0,North,4.6,-,N/A,,Overcast,350,2013-01-24 23:53:00
5:53 PM,42.1,24.1,49,30.30,10.0,Calm,Calm,-,N/A,,Overcast,0,2013-01-25 00:53:00
6:53 PM,41.0,27.0,57,30.31,10.0,Calm,Calm,-,0.00,,Overcast,0,2013-01-25 01:53:00
7:53 PM,39.9,26.1,58,30.30,10.0,Calm,Calm,-,N/A,,Overcast,0,2013-01-25 02:53:00
8:53 PM,39.9,25.0,55,30.32,10.0,Calm,Calm,-,N/A,,Overcast,0,2013-01-25 03:53:00
9:53 PM,39.9,26.1,58,30.32,10.0,Calm,Calm,-,N/A,,Overcast,0,2013-01-25 04:53:00
10:53 PM,39.0,26.1,60,30.32,10.0,SSE,5.8,-,0.00,Rain,Light Rain,160,2013-01-25 05:53:00
11:53 PM,41.0,26.1,55,30.32,10.0,Calm,Calm,-,0.00,,Overcast,0,2013-01-25 06:53:00